UAE788 DIAP-DGAA

Flight info

Callsign UAE788
Flight time 0h 43m
Altitude 31000
Route ONESI UB600 MIMTI MIMTI1B
Aircraft B77W/H-SDE1E2E3FGHIJ2J3J4J5M1RWXY/LB1D1

Departure

Time 2026-05-05 18:01
Airport Félix-Houphouët-Boigny International Airport (DIAP)

Arrival

Time 2026-05-05 18:44
Airport Kotoka International Airport (DGAA)
Time Latitude Longitude Altitude Speed Heading
2026-05-05 17:52 5.25339 -3.93098 26 ft 5 kts
2026-05-05 17:52 5.25314 -3.93107 25 ft 3 kts 23°
2026-05-05 17:53 5.25310 -3.93108 27 ft 23 kts 22°
2026-05-05 17:54 5.25324 -3.93103 29 ft 11 kts 21°
2026-05-05 17:54 5.25466 -3.93046 27 ft 26 kts 23°
2026-05-05 17:54 5.25630 -3.92976 30 ft 26 kts 22°
2026-05-05 17:55 5.25795 -3.92909 31 ft 26 kts 22°
2026-05-05 17:55 5.25960 -3.92841 33 ft 26 kts 22°
2026-05-05 17:55 5.26130 -3.92771 31 ft 28 kts 22°
2026-05-05 17:55 5.26318 -3.92693 29 ft 30 kts 22°
2026-05-05 17:56 5.26515 -3.92611 27 ft 31 kts 22°
2026-05-05 17:56 5.26710 -3.92532 29 ft 30 kts 22°
2026-05-05 17:56 5.26903 -3.92454 28 ft 30 kts 22°
2026-05-05 17:56 5.27095 -3.92375 30 ft 27 kts 22°
2026-05-05 17:57 5.27168 -3.92310 29 ft 8 kts 92°
2026-05-05 17:57 5.27166 -3.92302 29 ft 0 kts 107°
2026-05-05 17:59 5.27160 -3.92284 29 ft 14 kts 107°
2026-05-05 18:00 5.27098 -3.92203 30 ft 14 kts 169°
2026-05-05 18:00 5.26795 -3.92306 28 ft 87 kts 202°
2026-05-05 18:00 5.26004 -3.92634 30 ft 156 kts 202°
2026-05-05 18:00 5.24912 -3.93082 433 ft 171 kts 202°
2026-05-05 18:01 5.23820 -3.93561 1190 ft 171 kts 201°
2026-05-05 18:01 5.22651 -3.93579 1832 ft 174 kts 154°
2026-05-05 18:01 5.21851 -3.92638 2487 ft 190 kts 105°
2026-05-05 18:01 5.22002 -3.91306 3106 ft 210 kts 64°
2026-05-05 18:02 5.22882 -3.90017 3384 ft 237 kts 66°
2026-05-05 18:02 5.23193 -3.88340 3751 ft 256 kts 92°
2026-05-05 18:02 5.23207 -3.86515 4601 ft 265 kts 90°
2026-05-05 18:02 5.23295 -3.84659 5690 ft 266 kts 88°
2026-05-05 18:03 5.23422 -3.82809 6797 ft 265 kts 86°
2026-05-05 18:03 5.23573 -3.80962 7821 ft 267 kts 85°
2026-05-05 18:03 5.23744 -3.79097 8822 ft 269 kts 85°
2026-05-05 18:03 5.23929 -3.77226 9861 ft 270 kts 85°
2026-05-05 18:04 5.24124 -3.75345 10791 ft 272 kts 84°
2026-05-05 18:04 5.24329 -3.73441 11663 ft 277 kts 84°
2026-05-05 18:04 5.24542 -3.71507 12528 ft 281 kts 83°
2026-05-05 18:04 5.24763 -3.69545 13424 ft 285 kts 83°
2026-05-05 18:05 5.24989 -3.67552 14234 ft 290 kts 83°
2026-05-05 18:05 5.25222 -3.65519 14996 ft 296 kts 83°
2026-05-05 18:05 5.25462 -3.63444 15767 ft 303 kts 83°
2026-05-05 18:05 5.25707 -3.61321 16536 ft 309 kts 83°
2026-05-05 18:06 5.25959 -3.59156 17317 ft 316 kts 83°
2026-05-05 18:06 5.26128 -3.57700 17825 ft 320 kts 83°
2026-05-05 18:06 5.26478 -3.54693 18765 ft 328 kts 83°
2026-05-05 18:06 5.26744 -3.52405 19493 ft 333 kts 83°
2026-05-05 18:07 5.27014 -3.50088 20252 ft 336 kts 83°
2026-05-05 18:07 5.27287 -3.47742 20991 ft 340 kts 83°
2026-05-05 18:07 5.27563 -3.45372 21717 ft 345 kts 83°
2026-05-05 18:07 5.27843 -3.42964 22421 ft 350 kts 83°
2026-05-05 18:08 5.28128 -3.40517 23128 ft 355 kts 83°
2026-05-05 18:08 5.28415 -3.38045 23797 ft 359 kts 83°
2026-05-05 18:08 5.28703 -3.35573 24401 ft 363 kts 83°
2026-05-05 18:08 5.28997 -3.33046 25041 ft 366 kts 83°
2026-05-05 18:09 5.29293 -3.30499 25701 ft 369 kts 83°
2026-05-05 18:09 5.29591 -3.27930 26326 ft 373 kts 83°
2026-05-05 18:09 5.29893 -3.25332 26829 ft 377 kts 83°
2026-05-05 18:09 5.30198 -3.22704 26878 ft 381 kts 83°
2026-05-05 18:10 5.30504 -3.20070 26886 ft 379 kts 83°
2026-05-05 18:10 5.30808 -3.17447 26879 ft 377 kts 83°
2026-05-05 18:10 5.31110 -3.14838 26875 ft 376 kts 83°
2026-05-05 18:10 5.31412 -3.12232 26879 ft 376 kts 83°
2026-05-05 18:11 5.31722 -3.09563 26910 ft 396 kts 83°
2026-05-05 18:11 5.32049 -3.06744 26911 ft 417 kts 83°
2026-05-05 18:11 5.32392 -3.03787 26901 ft 437 kts 83°
2026-05-05 18:11 5.32749 -3.00708 26908 ft 449 kts 83°
2026-05-05 18:12 5.33108 -2.97595 26900 ft 451 kts 83°
2026-05-05 18:12 5.33470 -2.94467 26894 ft 451 kts 83°
2026-05-05 18:12 5.33831 -2.91335 26889 ft 451 kts 83°
2026-05-05 18:12 5.34192 -2.88211 26895 ft 451 kts 83°
2026-05-05 18:13 5.34552 -2.85089 26894 ft 450 kts 83°
2026-05-05 18:13 5.34912 -2.81968 26892 ft 450 kts 83°
2026-05-05 18:13 5.35272 -2.78848 26891 ft 450 kts 83°
2026-05-05 18:13 5.35631 -2.75730 26894 ft 450 kts 83°
2026-05-05 18:14 5.35991 -2.72609 26892 ft 450 kts 83°
2026-05-05 18:14 5.36350 -2.69492 26889 ft 450 kts 83°
2026-05-05 18:14 5.36710 -2.66373 26889 ft 450 kts 83°
2026-05-05 18:14 5.37068 -2.63255 26887 ft 450 kts 83°
2026-05-05 18:15 5.37427 -2.60135 26890 ft 450 kts 83°
2026-05-05 18:15 5.37786 -2.57015 26888 ft 450 kts 83°
2026-05-05 18:15 5.38145 -2.53893 26888 ft 450 kts 83°
2026-05-05 18:15 5.38504 -2.50766 26890 ft 451 kts 83°
2026-05-05 18:16 5.38862 -2.47649 26897 ft 451 kts 83°
2026-05-05 18:16 5.39217 -2.44563 26889 ft 451 kts 83°
2026-05-05 18:16 5.39575 -2.41441 26883 ft 451 kts 83°
2026-05-05 18:16 5.39933 -2.38318 26884 ft 451 kts 83°
2026-05-05 18:17 5.40291 -2.35192 26886 ft 451 kts 83°
2026-05-05 18:17 5.40650 -2.32066 26888 ft 451 kts 83°
2026-05-05 18:17 5.41008 -2.28943 26893 ft 451 kts 83°
2026-05-05 18:17 5.41365 -2.25815 26889 ft 451 kts 83°
2026-05-05 18:18 5.41722 -2.22691 26884 ft 451 kts 83°
2026-05-05 18:18 5.42080 -2.19567 26885 ft 451 kts 83°
2026-05-05 18:18 5.42437 -2.16444 26884 ft 451 kts 83°
2026-05-05 18:18 5.42794 -2.13317 26887 ft 451 kts 83°
2026-05-05 18:19 5.43151 -2.10196 26879 ft 451 kts 83°
2026-05-05 18:19 5.43508 -2.07068 26878 ft 451 kts 83°
2026-05-05 18:19 5.43864 -2.03947 26875 ft 451 kts 83°
2026-05-05 18:19 5.44220 -2.00823 26883 ft 450 kts 83°
2026-05-05 18:20 5.44577 -1.97698 26880 ft 450 kts 83°
2026-05-05 18:20 5.44812 -1.95634 26879 ft 450 kts 83°
2026-05-05 18:20 5.45283 -1.91499 26883 ft 450 kts 83°
2026-05-05 18:20 5.45523 -1.89386 26874 ft 450 kts 83°
2026-05-05 18:21 5.45879 -1.86264 26872 ft 450 kts 83°
2026-05-05 18:21 5.46349 -1.82128 26882 ft 450 kts 83°
2026-05-05 18:21 5.46704 -1.79009 26872 ft 450 kts 83°
2026-05-05 18:21 5.46944 -1.76896 26878 ft 450 kts 83°
2026-05-05 18:22 5.47413 -1.72762 26882 ft 450 kts 83°
2026-05-05 18:22 5.47653 -1.70649 26880 ft 450 kts 83°
2026-05-05 18:22 5.48007 -1.67532 26880 ft 451 kts 83°
2026-05-05 18:22 5.48362 -1.64407 26876 ft 451 kts 83°
2026-05-05 18:23 5.48716 -1.61280 26878 ft 451 kts 83°
2026-05-05 18:23 5.49069 -1.58169 26884 ft 450 kts 83°
2026-05-05 18:23 5.49418 -1.55079 26862 ft 440 kts 83°
2026-05-05 18:23 5.49760 -1.52051 26881 ft 435 kts 83°
2026-05-05 18:24 5.50101 -1.49039 26889 ft 435 kts 83°
2026-05-05 18:24 5.50443 -1.46021 26887 ft 435 kts 83°
2026-05-05 18:24 5.50784 -1.43007 26892 ft 435 kts 83°
2026-05-05 18:24 5.51126 -1.39985 26883 ft 435 kts 83°
2026-05-05 18:25 5.51467 -1.36966 26895 ft 436 kts 83°
2026-05-05 18:25 5.51693 -1.34965 26883 ft 435 kts 83°
2026-05-05 18:25 5.52146 -1.30950 26421 ft 431 kts 83°
2026-05-05 18:25 5.52482 -1.27965 25920 ft 429 kts 83°
2026-05-05 18:26 5.52812 -1.25039 25435 ft 426 kts 83°
2026-05-05 18:26 5.53144 -1.22099 24970 ft 423 kts 83°
2026-05-05 18:26 5.53477 -1.19138 24493 ft 420 kts 83°
2026-05-05 18:26 5.53805 -1.16233 24058 ft 417 kts 83°
2026-05-05 18:27 5.54125 -1.13352 23593 ft 415 kts 83°
2026-05-05 18:27 5.54436 -1.10478 23099 ft 412 kts 83°
2026-05-05 18:27 5.54737 -1.07666 22624 ft 409 kts 83°
2026-05-05 18:27 5.55039 -1.04846 22170 ft 405 kts 83°
2026-05-05 18:28 5.55635 -0.99283 21274 ft 397 kts 83°
2026-05-05 18:28 5.55930 -0.96535 20833 ft 394 kts 83°
2026-05-05 18:28 5.56222 -0.93813 20394 ft 391 kts 83°
2026-05-05 18:29 5.56513 -0.91110 19953 ft 388 kts 83°
2026-05-05 18:29 5.56802 -0.88424 19526 ft 385 kts 83°
2026-05-05 18:29 5.57088 -0.85760 19120 ft 382 kts 83°
2026-05-05 18:29 5.57371 -0.83117 18712 ft 379 kts 83°
2026-05-05 18:30 5.57652 -0.80497 18301 ft 377 kts 83°
2026-05-05 18:30 5.57931 -0.77895 17877 ft 374 kts 83°
2026-05-05 18:30 5.58208 -0.75315 17457 ft 370 kts 83°
2026-05-05 18:30 5.58482 -0.72755 17007 ft 367 kts 83°
2026-05-05 18:31 5.58753 -0.70222 16590 ft 364 kts 84°
2026-05-05 18:31 5.59021 -0.67712 16186 ft 360 kts 84°
2026-05-05 18:31 5.59288 -0.65224 15815 ft 356 kts 84°
2026-05-05 18:31 5.59551 -0.62767 15428 ft 353 kts 84°
2026-05-05 18:32 5.59811 -0.60329 15028 ft 350 kts 84°
2026-05-05 18:32 5.60069 -0.57918 14629 ft 346 kts 84°
2026-05-05 18:32 5.60323 -0.55535 14240 ft 343 kts 84°
2026-05-05 18:32 5.60576 -0.53168 13884 ft 340 kts 84°
2026-05-05 18:33 5.60827 -0.50823 13495 ft 337 kts 84°
2026-05-05 18:33 5.61075 -0.48502 13055 ft 328 kts 84°
2026-05-05 18:33 5.61313 -0.46271 12224 ft 317 kts 84°
2026-05-05 18:33 5.61545 -0.44090 11268 ft 312 kts 84°
2026-05-05 18:34 5.61776 -0.41918 10305 ft 317 kts 84°
2026-05-05 18:34 5.62009 -0.39741 9914 ft 303 kts 84°
2026-05-05 18:34 5.62224 -0.37723 9590 ft 279 kts 84°
2026-05-05 18:34 5.62425 -0.35842 9143 ft 266 kts 84°
2026-05-05 18:35 5.62619 -0.34014 8847 ft 263 kts 84°
2026-05-05 18:35 5.62811 -0.32202 8655 ft 257 kts 84°
2026-05-05 18:35 5.63140 -0.30471 8283 ft 254 kts 67°
2026-05-05 18:35 5.64310 -0.29111 7788 ft 265 kts 38°
2026-05-05 18:36 5.65835 -0.28081 7400 ft 265 kts 39°
2026-05-05 18:36 5.67336 -0.26998 7080 ft 266 kts 39°
2026-05-05 18:36 5.68811 -0.25924 6679 ft 258 kts 39°
2026-05-05 18:36 5.70263 -0.24869 6100 ft 256 kts 39°
2026-05-05 18:37 5.71704 -0.23823 5822 ft 260 kts 39°
2026-05-05 18:37 5.73193 -0.22744 5518 ft 268 kts 38°
2026-05-05 18:37 5.74720 -0.21640 5189 ft 273 kts 38°
2026-05-05 18:37 5.76266 -0.20521 4858 ft 275 kts 38°
2026-05-05 18:38 5.77824 -0.19392 4517 ft 274 kts 40°
2026-05-05 18:38 5.79049 -0.17993 4159 ft 261 kts 68°
2026-05-05 18:38 5.79398 -0.16318 3944 ft 233 kts 94°
2026-05-05 18:38 5.79185 -0.14778 3809 ft 216 kts 108°
2026-05-05 18:39 5.78714 -0.13385 3780 ft 206 kts 113°
2026-05-05 18:39 5.78159 -0.12102 3603 ft 195 kts 128°
2026-05-05 18:39 5.77162 -0.11250 3400 ft 184 kts 155°
2026-05-05 18:39 5.75961 -0.10858 3215 ft 184 kts 179°
2026-05-05 18:40 5.74694 -0.11103 2986 ft 188 kts 197°
2026-05-05 18:40 5.73431 -0.11467 2707 ft 190 kts 197°
2026-05-05 18:40 5.72225 -0.11888 2491 ft 174 kts 200°
2026-05-05 18:40 5.71143 -0.12329 2238 ft 162 kts 202°
2026-05-05 18:41 5.70110 -0.12758 2098 ft 159 kts 202°
2026-05-05 18:41 5.69119 -0.13168 2061 ft 153 kts 202°
2026-05-05 18:41 5.68163 -0.13567 1994 ft 148 kts 201°
2026-05-05 18:41 5.67207 -0.13958 1772 ft 141 kts 200°
2026-05-05 18:42 5.66345 -0.14292 1392 ft 130 kts 200°
2026-05-05 18:42 5.65475 -0.14654 1137 ft 140 kts 204°
2026-05-05 18:42 5.64585 -0.15039 885 ft 136 kts 201°
2026-05-05 18:42 5.63741 -0.15389 690 ft 128 kts 200°
2026-05-05 18:43 5.62924 -0.15725 486 ft 125 kts 201°
2026-05-05 18:43 5.62130 -0.16056 328 ft 123 kts 200°
2026-05-05 18:43 5.61358 -0.16376 229 ft 113 kts 201°
2026-05-05 18:43 5.60737 -0.16631 230 ft 79 kts 202°
2026-05-05 18:44 5.60315 -0.16805 223 ft 61 kts 202°
2026-05-05 18:44 5.60043 -0.16918 220 ft 39 kts 207°
2026-05-05 18:44 5.59883 -0.17054 220 ft 19 kts 230°
2026-05-05 18:44 5.59823 -0.17128 220 ft 13 kts 231°
2026-05-05 18:45 5.59816 -0.17190 220 ft 14 kts 320°
2026-05-05 18:45 5.59940 -0.17172 218 ft 18 kts 21°
2026-05-05 18:45 5.60045 -0.17134 216 ft 14 kts 359°
2026-05-05 18:45 5.60091 -0.17188 218 ft 7 kts 291°
2026-05-05 18:46 5.60099 -0.17209 222 ft 0 kts 292°
2026-05-05 18:48 5.60101 -0.17211 222 ft 0 kts 292°